{"data":{"norad_id":47392,"intl_designator":"2021-005AV","name":"STARLINK-2113","alt_names":[],"object_type":"PAYLOAD","status":"ACTIVE","operator":null,"country":"US","launch_date":"2021-01-20","launch_site_code":"AFETR","launch_vehicle":null,"mission":null,"orbit_class":"UNKNOWN","rcs_meters":null,"size_class":null,"mass_kg":null,"dimensions":null,"purposes":["comms"],"wikipedia_slug":null,"has_3d_model":false,"image_url":null,"decayed_at":null,"tle_current":{"epoch":"2026-07-26T21:49:13.412928Z","epoch_age_seconds":4828839,"freshness":"OLD","line1":"1 47392U 21005AV  26207.90918302  .07996520  12401-4  60991-3 0  9990","line2":"2 47392  53.0241  39.0577 0008131 293.5606  66.4585 16.39511036305666","mean_motion":16.39511036,"eccentricity":0.0008131,"inclination_deg":53.0241,"raan_deg":39.0577,"arg_perigee_deg":293.5606,"mean_anomaly_deg":66.4585,"bstar":0.00060991,"rev_number":30566,"period_min":87.831064773632,"perigee_km":161.78160612367,"apogee_km":172.42547629178,"semimajor_km":6545.2405412077,"source":"CELESTRAK","updated_at":"2026-07-27T09:01:47.591194Z"}}}